Location: Borojevi?i
(45.0486°N, 16.2297°E)
Time: 17:33:50
(UTC+00:00)

Lacrosse 4 Rocket - Pass Details

Date: 08 August 2020
Orbit: 544 x 615 km, 68.0° (Epoch: 25 September)

Event Time Altitude Azimuth Distance (km) Brightness Sun altitude
Exits shadow 22:45:15 32° 30° (NNE) 999 3.0 -29.1°
Drops below altitude 10° 22:47:34 10° 30° (NNE) 1,879 4.7 -29.1°
Sets 22:49:46 0° 31° (NNE) 2,768 5.7 -29.1°
